Tracking 28126 objects as of 1-Oct-2023
HD Live streaming from Space Station
objects crossing your sky now

STARLINK-3927

Track STARLINK-3927 now!
10-day predictions
STARLINK-3927 is classified as:


NORAD ID: 52569
Int'l Code: 2022-051AN
Perigee: 545.8 km
Apogee: 547.8 km
Inclination: 53.2 °
Period: 95.4 minutes
Semi major axis: 6917 km
RCS: Unknown
Launch date: May 13, 2022
Source: United States (US)
Launch site: AIR FORCE WESTERN TEST RANGE (AFWTR)
Your satellite tracking list
Your tracking list is empty




NASA's NSSDC Master Catalog

Two Line Element Set (TLE):
1 52569U 22051AN  23272.97611989  .00011487  00000-0  73813-3 0  9999
2 52569  53.2163 162.1805 0001428  82.0427 278.0727 15.08864364 76966
Source of the keplerian elements: AFSPC